sat.trackr.live / text

‹ back to catalog

STARLINK-36365

NORAD 67666 · 2026-022U

PAYLOAD ACTIVE UNKNOWN

§ Identity

Operator
Country
US
Launch date
2026-02-02
Launch site
AFWTR
Launch vehicle
Mass (kg)
RCS (m²)

Purposes: comms

External: N2YO · Heavens-Above · Gunter

§ Orbital elements

Epoch: 2026-05-25T01:26:31.559136Z

Period
93.91 min
Inclination
97.2838°
Eccentricity
0.0001571
Mean motion
15.33455091 rev/d
Perigee alt
464.4 km
Apogee alt
466.6 km
Semi-major
6,843.7 km
B*
4.4416e-4
RAAN
178.2732°
Arg perigee
92.0844°
Mean anomaly
268.0579°
Rev number
1,727

§ Raw data

STARLINK-363651 67666U 26022U   26145.06008749  .00014296  00000+0  44416-3 0  99982 67666  97.2838 178.2732 0001571  92.0844 268.0579 15.33455091 17271

JSON: /api/v1/satellites/67666 · /tle

For live sub-satellite position, see the globe view (requires WebGL).

§ Visibility from observer

Set your observer location to see the next 7 days of passes ≥ 10°. The values pass through the URL so the page stays shareable.

No JS? Fill the form by hand. The geolocation button needs JavaScript.